DW8599 Weather Reports


time (UTC)temp
C
wind
direction
speed
KPH
gust
KPH
rain 1hr
cm
rain 24hr
cm
rain mn
cm
humidity
%
barometer
mb
20260510000055 11 0.0 0.0 0.00 0.00 0.00 87 1006.2
20260509235539 11 0.0 0.0 0.00 0.00 0.00 87 1006.0
20260509235042 11 0.0 0.0 0.00 0.00 0.00 86 1005.8
20260509234602 11 0.0 0.0 0.00 0.00 0.00 86 1005.9
20260509234043 11 0.0 0.0 0.00 0.00 0.00 86 1005.8
20260509233543 11 0.0 0.0 0.00 0.00 0.00 86 1006.0
20260509233049 11 0.0 0.0 0.00 0.00 0.00 85 1006.1
20260509232543 11 0.0 0.0 0.00 0.00 0.00 85 1006.1
20260509232039 11 0.0 0.0 0.00 0.00 0.00 85 1006.2
20260509231554 11 0.0 0.0 0.00 0.00 0.00 85 1006.1
20260509231040 11 0.0 0.0 0.00 0.00 0.00 84 1006.0
20260509230540 12 0.0 0.0 0.00 0.00 0.00 84 1006.0
20260509230059 12 0.0 0.0 0.00 0.00 0.00 83 1006.0
20260509225540 12 0.0 0.0 0.00 0.00 0.00 83 1006.0
20260509225040 12 0.0 0.0 0.00 0.00 0.00 83 1006.0
20260509224549 12 0.0 0.0 0.00 0.00 0.00 83 1006.1
20260509224042 12 0.0 0.0 0.00 0.00 0.00 83 1006.0
20260509223542 12 0.0 0.0 0.00 0.00 0.00 84 1005.9
20260509223049 12 0.0 0.0 0.00 0.00 0.00 84 1005.9
20260509222540 12 0.0 0.0 0.00 0.00 0.00 84 1005.9
20260509222039 12 0.0 0.0 0.00 0.00 0.00 85 1005.9
20260509221550 12 0.0 0.0 0.00 0.00 0.00 83 1005.8
20260509221042 12 0.0 0.0 0.00 0.00 0.00 84 1005.8
20260509220541 12 0.0 0.0 0.00 0.00 0.00 84 1005.8
20260509220051 12 0.0 0.0 0.00 0.00 0.00 84 1005.8
20260509215543 12 0.0 0.0 0.00 0.00 0.00 84 1006.0
20260509215040 12 0.0 0.0 0.00 0.00 0.00 85 1006.1
20260509214552 12 0.0 0.0 0.00 0.00 0.00 84 1006.1
20260509214042 12 0.0 0.0 0.00 0.00 0.00 84 1006.1
20260509213540 12 0.0 0.0 0.00 0.00 0.00 83 1006.0
20260509213055 12 0.0 0.0 0.00 0.00 0.00 83 1006.0
20260509212540 12 0.0 0.0 0.00 0.00 0.00 83 1006.1
20260509212039 12 0.0 0.0 0.00 0.00 0.00 83 1006.1
20260509211546 12 0.0 0.0 0.00 0.00 0.00 83 1006.1
20260509211043 12 0.0 0.0 0.00 0.00 0.00 84 1006.2
20260509210544 12 0.0 0.0 0.00 0.00 0.00 84 1006.2
20260509210055 12 0.0 0.0 0.00 0.00 0.00 84 1006.4
20260509205539 12 0.0 0.0 0.00 0.00 0.00 83 1006.4
20260509205040 12 0.0 0.0 0.00 0.00 0.00 83 1006.4
20260509204555 12 0.0 0.0 0.00 0.00 0.00 83 1006.6
20260509204043 12 0.0 0.0 0.00 0.00 0.00 83 1006.6
20260509203542 12 0.0 0.0 0.00 0.00 0.00 83 1006.6
20260509203047 12 0.0 0.0 0.00 0.00 0.00 82 1006.6
20260509202539 12 0.0 0.0 0.00 0.00 0.00 82 1006.6
20260509202042 12 0.0 0.0 0.00 0.00 0.00 83 1006.7
20260509201548 12 0.0 0.0 0.00 0.00 0.00 84 1006.7
20260509201043 12 0.0 0.0 0.00 0.00 0.00 82 1006.7
20260509200544 12 0.0 0.0 0.00 0.00 0.00 81 1006.6
20260509200053 12 0.0 0.0 0.00 0.00 0.00 81 1006.4
20260509195539 12 0.0 0.0 0.00 0.00 0.00 82 1006.6
20260509195038 12 0.0 0.0 0.00 0.00 0.00 83 1006.7
20260509194547 12 0.0 0.0 0.00 0.00 0.00 82 1006.7
20260509194039 12 0.0 0.0 0.00 0.00 0.00 84 1006.9
20260509193539 12 0.0 0.0 0.00 0.00 0.00 85 1006.9
20260509193048 12 0.0 0.0 0.00 0.00 0.00 84 1007.0
20260509192541 12 0.0 0.0 0.00 0.00 0.00 84 1007.0
20260509192041 12 0.0 0.0 0.00 0.00 0.00 86 1007.1
20260509191549 12 0.0 0.0 0.00 0.00 0.00 86 1007.2
20260509191045 11 0.0 0.0 0.00 0.00 0.00 84 1007.2
20260509190541 11 0.0 0.0 0.00 0.00 0.00 87 1007.2
20260509190052 11 0.0 0.0 0.00 0.00 0.00 87 1007.3
20260509185541 11 0.0 0.0 0.00 0.00 0.00 88 1007.3
20260509185042 11 0.0 0.0 0.00 0.00 0.00 87 1007.3
20260509184552 11 0.0 0.0 0.00 0.00 0.00 89 1007.3
20260509184039 11 0.0 0.0 0.00 0.00 0.00 88 1007.2
20260509183545 11 0.0 0.0 0.00 0.00 0.00 88 1007.3
20260509183124 11 0.0 0.0 0.00 0.00 0.00 89 1007.3
20260509182541 11 0.0 0.0 0.00 0.00 0.00 89 1007.3
20260509182047 11 0.0 0.0 0.00 0.00 0.00 88 1007.4
20260509181606 11 0.0 0.0 0.00 0.00 0.00 88 1007.4
20260509181042 11 0.0 0.0 0.00 0.00 0.00 89 1007.2
20260509180542 11 0.0 0.0 0.00 0.00 0.00 89 1007.3
20260509180052 11 0.0 0.0 0.00 0.00 0.00 89 1007.4
20260509175541 10 0.0 0.0 0.00 0.00 0.00 89 1007.3
20260509175041 10 0.0 0.0 0.00 0.00 0.00 91 1007.4
20260509174549 10 0.0 0.0 0.00 0.00 0.00 91 1007.4
20260509174040 10 0.0 0.0 0.00 0.00 0.00 92 1007.3
20260509173541 10 0.0 0.0 0.00 0.00 0.00 91 1007.4
20260509173047 10 0.0 0.0 0.00 0.00 0.00 92 1007.4
20260509172542 10 0.0 0.0 0.00 0.00 0.00 91 1007.4
20260509172042 10 0.0 0.0 0.00 0.00 0.00 93 1007.5
20260509171544 10 0.0 0.0 0.00 0.00 0.00 92 1007.5
20260509171043 10 0.0 0.0 0.00 0.00 0.00 93 1007.6
20260509170545 10 0.0 0.0 0.00 0.00 0.00 92 1007.6
20260509170051 10 0.0 0.0 0.00 0.00 0.00 92 1007.6
20260509165541 9 0.0 0.0 0.00 0.00 0.00 92 1007.8
20260509165041 10 0.0 0.0 0.00 0.00 0.00 93 1007.8
20260509164546 9 0.0 0.0 0.00 0.00 0.00 93 1007.9
20260509164042 9 0.0 0.0 0.00 0.00 0.00 93 1008.1
20260509163542 9 0.0 0.0 0.00 0.00 0.00 93 1008.0
20260509163048 9 0.0 0.0 0.00 0.00 0.00 93 1008.0
20260509162543 9 0.0 0.0 0.00 0.00 0.00 93 1008.1
20260509162040 9 0.0 0.0 0.00 0.00 0.00 93 1008.1
20260509161549 10 0.0 0.0 0.00 0.00 0.00 93 1008.1
20260509161043 9 0.0 0.0 0.00 0.00 0.00 93 1008.2
20260509160542 9 0.0 0.0 0.00 0.00 0.00 94 1008.2
20260509160045 9 0.0 0.0 0.00 0.00 0.00 94 1008.2
20260509155542 9 0.0 0.0 0.00 0.00 0.00 93 1008.3
20260509155041 9 0.0 0.0 0.00 0.00 0.00 93 1008.3
20260509154553 9 0.0 0.0 0.00 0.00 0.00 93 1008.6
20260509154042 8 0.0 0.0 0.00 0.00 0.00 93 1008.7
20260509153541 8 0.0 0.0 0.00 0.00 0.00 93 1008.7
20260509153049 8 0.0 0.0 0.00 0.00 0.00 93 1008.8
20260509152543 8 0.0 0.0 0.00 0.00 0.00 93 1008.8
20260509152042 8 0.0 0.0 0.00 0.00 0.00 93 1008.9
20260509151550 8 0.0 0.0 0.00 0.00 0.00 93 1008.9
20260509151039 8 0.0 0.0 0.00 0.00 0.00 93 1009.0
20260509150539 8 0.0 0.0 0.00 0.00 0.00 93 1009.1
20260509150048 8 0.0 0.0 0.00 0.00 0.00 93 1009.0
20260509145539 8 0.0 0.0 0.00 0.00 0.00 93 1009.0
20260509145039 8 0.0 0.0 0.00 0.00 0.00 93 1009.0
20260509144549 8 0.0 0.0 0.00 0.00 0.00 93 1009.1
20260509144039 8 0.0 0.0 0.00 0.00 0.00 93 1009.1
20260509143542 8 0.0 0.0 0.00 0.00 0.00 94 1009.1
20260509143054 8 0.0 0.0 0.00 0.00 0.00 94 1009.0
20260509142538 8 0.0 0.0 0.00 0.00 0.00 93 1009.0
20260509142041 8 0.0 0.0 0.00 0.00 0.00 93 1009.0
20260509141600 7 0.0 0.0 0.00 0.00 0.00 93 1009.1
20260509141039 7 0.0 0.0 0.00 0.00 0.00 93 1009.0
20260509140541 7 0.0 0.0 0.00 0.00 0.00 93 1009.1
20260509140057 7 0.0 0.0 0.00 0.00 0.00 93 1009.1
20260509135542 7 0.0 0.0 0.00 0.00 0.00 93 1009.1
20260509135039 7 0.0 0.0 0.00 0.00 0.00 93 1009.2
20260509134552 7 0.0 0.0 0.00 0.00 0.00 93 1009.1
20260509134039 7 0.0 0.0 0.00 0.00 0.00 92 1009.2
20260509133539 7 0.0 0.0 0.00 0.00 0.00 92 1009.3
20260509133045 7 0.0 0.0 0.00 0.00 0.00 92 1009.3
20260509132545 7 0.0 0.0 0.00 0.00 0.00 92 1009.3
20260509132043 7 0.0 0.0 0.00 0.00 0.00 92 1009.3
20260509131546 7 0.0 0.0 0.00 0.00 0.00 92 1009.3
20260509131041 7 0.0 0.0 0.00 0.00 0.00 92 1009.3
20260509130540 7 0.0 0.0 0.00 0.00 0.00 92 1009.3
20260509130051 6 0.0 0.0 0.00 0.00 0.00 92 1009.3
20260509125539 6 0.0 0.0 0.00 0.00 0.00 92 1009.4
20260509125040 6 0.0 0.0 0.00 0.00 0.00 91 1009.3
20260509124550 6 0.0 0.0 0.00 0.00 0.00 91 1009.3
20260509124039 6 0.0 0.0 0.00 0.00 0.00 91 1009.3
20260509123544 6 0.0 0.0 0.00 0.00 0.00 91 1009.3
20260509123052 6 0.0 0.0 0.00 0.00 0.00 90 1009.4
20260509122538 6 0.0 0.0 0.00 0.00 0.00 90 1009.5
20260509122042 6 0.0 0.0 0.00 0.00 0.00 90 1009.6
20260509121546 6 0.0 0.0 0.00 0.00 0.00 89 1009.6
20260509121039 5 0.0 0.0 0.00 0.00 0.00 89 1009.7
20260509120539 5 0.0 0.0 0.00 0.00 0.00 88 1009.7
20260509120054 5 0.0 0.0 0.00 0.00 0.00 87 1009.7
20260509115541 5 0.0 0.0 0.00 0.00 0.00 86 1009.7
20260509115044 5 0.0 0.0 0.00 0.00 0.00 85 1009.8
20260509114549 5 0.0 0.0 0.00 0.00 0.00 84 1009.7
20260509114042 5 0.0 0.0 0.00 0.00 0.00 83 1009.7
20260509113543 5 0.0 0.0 0.00 0.00 0.00 82 1009.6
20260509113050 5 0.0 0.0 0.00 0.00 0.00 83 1009.7
20260509112538 5 0.0 0.0 0.00 0.00 0.00 82 1009.7
20260509112039 5 0.0 0.0 0.00 0.00 0.00 81 1009.7
20260509111552 5 0.0 0.0 0.00 0.00 0.00 80 1009.7
20260509111039 5 0.0 0.0 0.00 0.00 0.00 78 1009.6
20260509110540 5 0.0 0.0 0.00 0.00 0.00 79 1009.6
20260509110050 5 0.0 0.0 0.00 0.00 0.00 79 1009.5
20260509105539 6 0.0 0.0 0.00 0.00 0.00 78 1009.6
20260509105039 6 0.0 0.0 0.00 0.00 0.00 79 1009.6
20260509104551 6 0.0 0.0 0.00 0.00 0.00 77 1009.6
20260509104038 6 0.0 0.0 0.00 0.00 0.00 76 1009.5
20260509103541 5 0.0 0.0 0.00 0.00 0.00 76 1009.6
20260509103052 5 0.0 0.0 0.00 0.00 0.00 75 1009.4
20260509102539 5 0.0 0.0 0.00 0.00 0.00 74 1009.5
20260509102042 5 0.0 0.0 0.00 0.00 0.00 73 1009.2
20260509101555 5 0.0 0.0 0.00 0.00 0.00 72 1009.2
20260509101043 5 0.0 0.0 0.00 0.00 0.00 71 1009.4
20260509100543 5 0.0 0.0 0.00 0.00 0.00 70 1009.3
20260509100051 6 0.0 0.0 0.00 0.00 0.00 69 1009.4
20260509095545 6 0.0 0.0 0.00 0.00 0.00 67 1009.3
20260509095040 6 0.0 0.0 0.00 0.00 0.00 67 1009.3
20260509094549 6 0.0 0.0 0.00 0.00 0.00 66 1009.1
20260509094044 6 0.0 0.0 0.00 0.00 0.00 65 1009.2
20260509093543 6 0.0 0.0 0.00 0.00 0.00 65 1009.3
20260509093054 6 0.0 0.0 0.00 0.00 0.00 64 1009.4
20260509092543 6 0.0 0.0 0.00 0.00 0.00 63 1009.3
20260509092043 6 0.0 0.0 0.00 0.00 0.00 63 1009.4
20260509091548 6 0.0 0.0 0.00 0.00 0.00 62 1009.5
20260509091040 6 0.0 0.0 0.00 0.00 0.00 61 1009.6
20260509090544 6 0.0 0.0 0.00 0.00 0.00 61 1009.7
20260509090050 6 0.0 0.0 0.00 0.00 0.00 61 1009.7
20260509085543 6 0.0 0.0 0.00 0.00 0.00 60 1009.8
20260509085041 6 0.0 0.0 0.00 0.00 0.00 60 1009.7
20260509084554 6 0.0 0.0 0.00 0.00 0.00 60 1009.8
20260509084040 6 0.0 0.0 0.00 0.00 0.00 59 1009.8
20260509083544 6 0.0 0.0 0.00 0.00 0.00 60 1009.8
20260509083052 6 0.0 0.0 0.00 0.00 0.00 60 1009.9
20260509082543 6 0.0 0.0 0.00 0.00 0.00 60 1009.9
20260509082044 6 0.0 0.0 0.00 0.00 0.00 60 1010.0
20260509081552 6 0.0 0.0 0.00 0.00 0.00 61 1009.9
20260509081044 6 0.0 0.0 0.00 0.00 0.00 62 1010.0
20260509080543 6 0.0 0.0 0.00 0.00 0.00 61 1010.0
20260509080053 6 0.0 0.0 0.00 0.00 0.00 62 1010.0
20260509075543 6 0.0 0.0 0.00 0.00 0.00 61 1009.9
20260509075045 6 0.0 0.0 0.00 0.00 0.00 63 1010.0
20260509074549 6 0.0 0.0 0.00 0.00 0.00 63 1010.0
20260509074044 6 0.0 0.0 0.00 0.00 0.00 62 1010.0
20260509073544 6 0.0 0.0 0.00 0.00 0.00 63 1010.0
20260509073048 5 0.0 0.0 0.00 0.00 0.00 62 1010.0
20260509072546 5 0.0 0.0 0.00 0.00 0.00 63 1010.0
20260509072042 5 0.0 0.0 0.00 0.00 0.00 63 1010.0
20260509071553 5 0.0 0.0 0.00 0.00 0.00 62 1010.0
20260509071043 5 0.0 0.0 0.00 0.00 0.00 62 1010.1
20260509070544 5 0.0 0.0 0.00 0.00 0.00 63 1010.0
20260509070049 5 0.0 0.0 0.00 0.00 0.00 63 1010.0
20260509065543 5 0.0 0.0 0.00 0.00 0.00 64 1010.0
20260509065043 5 0.0 0.0 0.00 0.00 0.00 64 1010.1
20260509064616 5 0.0 0.0 0.00 0.00 0.00 64 1010.1
20260509064043 5 0.0 0.0 0.00 0.00 0.00 64 1010.1
20260509063543 5 0.0 0.0 0.00 0.00 0.00 66 1010.2
20260509063056 5 0.0 0.0 0.00 0.00 0.00 65 1010.3
20260509062543 5 0.0 0.0 0.00 0.00 0.00 64 1010.4
20260509062043 5 0.0 0.0 0.00 0.00 0.00 64 1010.4
20260509061553 5 0.0 0.0 0.00 0.00 0.00 64 1010.4
20260509061043 5 0.0 0.0 0.00 0.00 0.00 65 1010.6
20260509060543 5 0.0 0.0 0.00 0.00 0.00 63 1010.7
20260509060054 5 0.0 0.0 0.00 0.00 0.00 64 1010.7
20260509055543 5 0.0 0.0 0.00 0.00 0.00 63 1010.7
20260509055043 5 0.0 0.0 0.00 0.00 0.00 64 1010.8
20260509054552 6 0.0 0.0 0.00 0.00 0.00 64 1010.8
20260509054044 6 0.0 0.0 0.00 0.00 0.00 63 1010.9
20260509053543 6 0.0 0.0 0.00 0.00 0.00 64 1011.0
20260509053058 6 0.0 0.0 0.00 0.00 0.00 65 1010.8
20260509052543 6 0.0 0.0 0.00 0.00 0.00 64 1010.9
20260509052047 6 0.0 0.0 0.00 0.00 0.00 64 1011.1
20260509051548 6 0.0 0.0 0.00 0.00 0.00 63 1011.0
20260509051043 6 0.0 0.0 0.00 0.00 0.00 63 1011.1
20260509050544 6 0.0 0.0 0.00 0.00 0.00 63 1011.1
20260509050056 6 0.0 0.0 0.00 0.00 0.00 62 1011.2
20260509045543 6 0.0 0.0 0.00 0.00 0.00 62 1011.2
20260509045043 6 0.0 0.0 0.00 0.00 0.00 63 1011.2
20260509044554 6 0.0 0.0 0.00 0.00 0.00 64 1011.3
20260509044044 6 0.0 0.0 0.00 0.00 0.00 62 1011.3
20260509043543 6 0.0 0.0 0.00 0.00 0.00 62 1011.3
20260509043048 6 0.0 0.0 0.00 0.00 0.00 63 1011.3
20260509042544 6 0.0 0.0 0.00 0.00 0.00 63 1011.3
20260509042043 6 0.0 0.0 0.00 0.00 0.00 64 1011.2
20260509041554 6 0.0 0.0 0.00 0.00 0.00 63 1011.3
20260509041043 6 0.0 0.0 0.00 0.00 0.00 62 1011.3
20260509040546 6 0.0 0.0 0.00 0.00 0.00 64 1011.2
20260509040053 6 0.0 0.0 0.00 0.00 0.00 63 1011.2
20260509035544 6 0.0 0.0 0.00 0.00 0.00 63 1011.2
20260509035044 6 0.0 0.0 0.00 0.00 0.00 65 1011.2
20260509034552 6 0.0 0.0 0.00 0.00 0.00 63 1011.2
20260509034044 6 0.0 0.0 0.00 0.00 0.00 63 1011.0
20260509033544 6 0.0 0.0 0.00 0.00 0.00 63 1011.1
20260509033056 6 0.0 0.0 0.00 0.00 0.00 63 1011.0
20260509032543 6 0.0 0.0 0.00 0.00 0.00 63 1011.2
20260509032042 6 0.0 0.0 0.00 0.00 0.00 63 1011.2
20260509031554 6 0.0 0.0 0.00 0.00 0.00 64 1011.2
20260509031044 6 0.0 0.0 0.00 0.00 0.00 64 1011.3
20260509030544 6 0.0 0.0 0.00 0.00 0.00 65 1011.3
20260509030051 6 0.0 0.0 0.00 0.00 0.00 65 1011.4
20260509025543 6 0.0 0.0 0.00 0.00 0.00 65 1011.4
20260509025045 6 0.0 0.0 0.00 0.00 0.00 65 1011.4
20260509024553 6 0.0 0.0 0.00 0.00 0.00 65 1011.4
20260509024043 6 0.0 0.0 0.00 0.00 0.00 65 1011.4
20260509023543 6 0.0 0.0 0.00 0.00 0.00 65 1011.5
20260509023101 6 0.0 0.0 0.00 0.00 0.00 65 1011.6
20260509022546 6 0.0 0.0 0.00 0.00 0.00 65 1011.6
20260509022043 6 0.0 0.0 0.00 0.00 0.00 66 1011.6
20260509021546 6 0.0 0.0 0.00 0.00 0.00 66 1011.5
20260509021045 6 0.0 0.0 0.00 0.00 0.00 67 1011.5
20260509020542 6 0.0 0.0 0.00 0.00 0.00 65 1011.5
20260509020046 6 0.0 0.0 0.00 0.00 0.00 65 1011.6
20260509015543 6 0.0 0.0 0.00 0.00 0.00 65 1011.5
20260509015044 6 0.0 0.0 0.00 0.00 0.00 65 1011.5
20260509014550 6 0.0 0.0 0.00 0.00 0.00 65 1011.4
20260509014043 6 0.0 0.0 0.00 0.00 0.00 65 1011.3
20260509013546 6 0.0 0.0 0.00 0.00 0.00 67 1011.3
20260509013054 5 0.0 0.0 0.00 0.00 0.00 68 1011.2
20260509012543 5 0.0 0.0 0.00 0.00 0.00 72 1011.1
20260509012043 5 0.0 0.0 0.00 0.00 0.00 72 1011.0
20260509011548 5 0.0 0.0 0.00 0.00 0.00 71 1010.9
20260509011045 5 0.0 0.0 0.00 0.00 0.00 72 1010.8
20260509010547 5 0.0 0.0 0.00 0.00 0.00 72 1010.8
20260509010045 5 0.0 0.0 0.00 0.00 0.00 73 1010.9
20260509005544 5 0.0 0.0 0.00 0.00 0.00 74 1010.8
20260509005044 5 0.0 0.0 0.00 0.00 0.00 74 1010.7
20260509004554 5 0.0 0.0 0.00 0.00 0.00 72 1010.7
20260509004045 5 0.0 0.0 0.00 0.00 0.00 72 1010.6
20260509003544 6 0.0 0.0 0.00 0.00 0.00 73 1010.4
20260509003050 6 0.0 0.0 0.00 0.00 0.00 73 1010.4
20260509002543 6 0.0 0.0 0.00 0.00 0.00 73 1010.3
20260509002043 6 0.0 0.0 0.00 0.00 0.00 72 1010.3
20260509001554 6 0.0 0.0 0.00 0.00 0.00 70 1010.4
20260509001043 6 0.0 0.0 0.00 0.00 0.00 69 1010.3
20260509000546 6 0.0 0.0 0.00 0.00 0.00 69 1010.3